FW7070 Weather Reports


time (UTC)temp
F
wind
direction
speed
knots
gust
knots
rain 1hr
in
rain 24hr
in
rain mn
in
humidity
%
barometer
mb
20260507233316 48 235 2.6 4.3 0.00 0.00 0.00 67 1031.1
20260507232814 48 260 5.2 7.8 0.00 0.00 0.00 66 1030.9
20260507232310 49 271 4.3 6.1 0.00 0.00 0.00 66 1031.1
20260507231807 49 356 1.7 7.0 0.00 0.00 0.00 66 1031.2
20260507231304 49 281 2.6 11.3 0.00 0.00 0.00 66 1031.2
20260507230800 49 271 4.3 7.8 0.00 0.00 0.00 66 1031.1
20260507230258 49 275 1.7 7.0 0.00 0.00 0.00 64 1031.3
20260507225757 49 289 3.5 10.4 0.00 0.00 0.00 62 1031.1
20260507225254 50 255 4.3 12.2 0.00 0.00 0.00 59 1031.2
20260507224750 50 282 2.6 13.9 0.00 0.00 0.00 57 1031.3
20260507224247 51 257 7.0 12.2 0.00 0.00 0.00 56 1031.2
20260507223743 51 271 8.7 9.6 0.00 0.00 0.00 57 1031.1
20260507223240 51 244 3.5 11.3 0.00 0.00 0.00 57 1030.9
20260507222737 51 301 5.2 10.4 0.00 0.00 0.00 58 1030.9
20260507222233 51 285 2.6 10.4 0.00 0.00 0.00 55 1031.1
20260507221730 52 279 6.1 8.7 0.00 0.00 0.00 52 1030.9
20260507221226 52 265 6.1 11.3 0.00 0.00 0.00 52 1031.1
20260507220723 52 262 7.8 10.4 0.00 0.00 0.00 51 1030.8
20260507220221 52 282 4.3 9.6 0.00 0.00 0.00 51 1030.9
20260507215717 53 335 2.6 9.6 0.00 0.00 0.00 50 1030.8
20260507215215 53 254 2.6 6.1 0.00 0.00 0.00 51 1031.2
20260507214712 53 281 5.2 15.6 0.00 0.00 0.00 48 1030.9
20260507214209 53 289 3.5 8.7 0.00 0.00 0.00 50 1030.8
20260507213704 53 252 5.2 8.7 0.00 0.00 0.00 52 1030.6
20260507213201 53 261 3.5 8.7 0.00 0.00 0.00 51 1030.6
20260507212657 53 346 3.5 6.1 0.00 0.00 0.00 49 1030.4
20260507212154 52 313 4.3 9.6 0.00 0.00 0.00 49 1030.7
20260507211651 53 281 4.3 9.6 0.00 0.00 0.00 49 1030.6
20260507211146 53 300 3.5 7.8 0.00 0.00 0.00 51 1030.6
20260507210644 53 289 4.3 10.4 0.00 0.00 0.00 50 1030.7
20260507210141 53 272 6.1 12.2 0.00 0.00 0.00 50 1030.4
20260507205637 53 293 3.5 7.8 0.00 0.00 0.00 51 1030.6
20260507205134 52 280 2.6 9.6 0.00 0.00 0.00 51 1030.7
20260507204630 53 268 7.0 10.4 0.00 0.00 0.00 50 1030.4
20260507204128 53 262 2.6 7.0 0.00 0.00 0.00 51 1030.6
20260507203626 53 266 6.1 13.0 0.00 0.00 0.00 50 1030.7
20260507203123 54 320 4.3 7.0 0.00 0.00 0.00 49 1030.8
20260507202619 55 253 3.5 11.3 0.00 0.00 0.00 50 1030.7
20260507202115 54 253 4.3 8.7 0.00 0.00 0.00 49 1030.8
20260507201610 53 292 3.5 7.0 0.00 0.00 0.00 52 1030.8
20260507201108 53 312 4.3 10.4 0.00 0.00 0.00 53 1030.7
20260507200602 53 259 6.1 9.6 0.00 0.00 0.00 53 1030.7
20260507200059 53 268 2.6 9.6 0.00 0.00 0.00 52 1030.9
20260507195557 53 278 3.5 9.6 0.00 0.00 0.00 54 1030.9
20260507195054 54 259 4.3 8.7 0.00 0.00 0.00 49 1030.7
20260507194550 53 283 1.7 7.8 0.00 0.00 0.00 51 1030.9
20260507194046 54 299 3.5 7.8 0.00 0.00 0.00 48 1031.1
20260507193543 54 349 1.7 6.1 0.00 0.00 0.00 52 1030.9
20260507193040 54 359 5.2 7.8 0.00 0.00 0.00 48 1030.9
20260507192536 54 353 4.3 7.8 0.00 0.00 0.00 49 1031.2
20260507192033 54 328 2.6 7.8 0.00 0.00 0.00 57 1031.3
20260507191528 54 317 6.1 7.8 0.00 0.00 0.00 49 1031.2
20260507191026 54 294 2.6 7.8 0.00 0.00 0.00 57 1031.3
20260507190523 53 249 7.8 8.7 0.00 0.00 0.00 55 1031.3
20260507190022 53 296 2.6 10.4 0.00 0.00 0.00 54 1031.3
20260507185520 54 279 4.3 6.1 0.00 0.00 0.00 62 1031.1
20260507185016 53 261 2.6 11.3 0.00 0.00 0.00 60 1031.4
20260507184514 53 359 1.7 4.3 0.00 0.00 0.00 65 1031.3
20260507184012 53 16 1.7 5.2 0.00 0.00 0.00 67 1031.5
20260507183507 53 357 1.7 5.2 0.00 0.00 0.00 68 1031.4
20260507183005 53 262 2.6 6.1 0.00 0.00 0.00 67 1031.5
20260507182501 52 354 2.6 5.2 0.00 0.00 0.00 66 1031.6
20260507181957 52 291 2.6 7.0 0.00 0.00 0.00 68 1031.4
20260507181454 52 21 2.6 6.1 0.00 0.00 0.00 71 1031.8
20260507180950 53 337 2.6 3.5 0.00 0.00 0.00 71 1031.7
20260507180447 53 336 4.3 7.0 0.00 0.00 0.00 70 1031.5
20260507175943 52 93 2.6 6.1 0.00 0.00 0.00 73 1031.8
20260507175440 52 286 1.7 7.8 0.00 0.00 0.00 71 1031.6
20260507174937 52 14 1.7 5.2 0.00 0.00 0.00 70 1031.6
20260507174434 52 326 1.7 6.1 0.00 0.00 0.00 70 1031.5
20260507173932 51 355 2.6 6.1 0.00 0.00 0.00 71 1031.5
20260507173429 52 289 4.3 5.2 0.00 0.00 0.00 71 1031.7
20260507172926 51 325 3.5 7.8 0.00 0.00 0.00 67 1031.7
20260507172422 51 260 7.0 9.6 0.00 0.00 0.00 70 1031.9
20260507171918 51 315 3.5 7.8 0.00 0.00 0.00 71 1031.8
20260507171415 51 345 2.6 4.3 0.00 0.00 0.00 72 1031.7
20260507170912 51 315 2.6 7.0 0.00 0.00 0.00 73 1032.0
20260507170408 51 347 3.5 6.1 0.00 0.00 0.00 71 1032.2
20260507165905 51 325 3.5 9.6 0.00 0.00 0.00 72 1032.1
20260507165400 51 297 3.5 9.6 0.00 0.00 0.00 70 1032.2
20260507164856 52 307 3.5 6.1 0.00 0.00 0.00 72 1032.0
20260507164354 52 308 4.3 9.6 0.00 0.00 0.00 73 1032.0
20260507163851 51 325 4.3 7.0 0.00 0.00 0.00 72 1031.9
20260507163348 51 311 3.5 6.1 0.00 0.00 0.00 71 1031.9
20260507162845 51 284 2.6 6.1 0.00 0.00 0.00 70 1032.0
20260507162340 52 265 3.5 6.1 0.00 0.00 0.00 71 1032.2
20260507161837 51 281 3.5 8.7 0.00 0.00 0.00 75 1032.2
20260507161334 51 272 2.6 7.8 0.00 0.00 0.00 71 1032.0
20260507160830 51 300 3.5 6.1 0.00 0.00 0.00 70 1032.4
20260507160326 50 257 3.5 9.6 0.00 0.00 0.00 71 1032.2
20260507155823 51 280 2.6 6.1 0.00 0.00 0.00 72 1032.3
20260507155319 50 277 6.1 7.8 0.00 0.00 0.00 71 1032.4
20260507154816 51 252 5.2 7.0 0.00 0.00 0.00 70 1032.3
20260507154313 51 325 2.6 7.8 0.00 0.00 0.00 69 1032.5
20260507153810 51 258 6.1 7.8 0.00 0.00 0.00 71 1032.4
20260507153306 50 265 3.5 7.0 0.00 0.00 0.00 71 1032.3
20260507152803 50 254 4.3 10.4 0.00 0.00 0.00 71 1032.5
20260507152259 50 269 4.3 12.2 0.00 0.00 0.00 69 1032.4
20260507151755 50 293 2.6 6.1 0.00 0.00 0.00 72 1032.3
20260507151251 51 323 1.7 7.0 0.00 0.00 0.00 74 1032.5
20260507150748 51 269 6.1 7.8 0.00 0.00 0.00 68 1032.6
20260507150245 50 244 3.5 7.0 0.00 0.00 0.00 69 1032.5
20260507145741 50 261 10.4 10.4 0.00 0.00 0.00 69 1032.4
20260507145238 50 235 7.8 8.7 0.00 0.00 0.00 72 1032.3
20260507144735 50 252 6.1 8.7 0.00 0.00 0.00 68 1032.5
20260507144233 50 255 3.5 7.0 0.00 0.00 0.00 69 1032.7
20260507143729 50 306 2.6 7.0 0.00 0.00 0.00 71 1032.6
20260507143226 49 261 1.7 7.8 0.00 0.00 0.00 70 1032.6
20260507142722 49 246 9.6 13.9 0.00 0.00 0.00 71 1032.4
20260507142219 49 303 1.7 8.7 0.00 0.00 0.00 71 1032.3
20260507141715 50 269 2.6 5.2 0.00 0.00 0.00 69 1032.7
20260507141213 50 314 4.3 7.8 0.00 0.00 0.00 68 1032.6
20260507140708 49 228 2.6 7.0 0.00 0.00 0.00 70 1032.5
20260507140206 49 248 5.2 10.4 0.00 0.00 0.00 68 1032.7
20260507135703 49 233 8.7 10.4 0.00 0.00 0.00 70 1032.6
20260507135200 49 316 6.1 8.7 0.00 0.00 0.00 70 1032.7
20260507134657 49 300 2.6 6.1 0.00 0.00 0.00 70 1032.7
20260507134153 49 275 2.6 7.8 0.00 0.00 0.00 71 1033.0
20260507133648 48 273 3.5 7.0 0.00 0.00 0.00 70 1032.8
20260507133146 49 257 3.5 9.6 0.00 0.00 0.00 70 1032.9
20260507132643 48 261 2.6 7.0 0.00 0.00 0.00 73 1033.0
20260507132139 48 261 2.6 7.8 0.00 0.00 0.00 74 1032.8
20260507131636 48 264 4.3 7.8 0.00 0.00 0.00 72 1032.8
20260507131134 47 297 2.6 3.5 0.00 0.00 0.00 74 1032.9
20260507130630 47 242 2.6 4.3 0.00 0.00 0.00 72 1032.8
20260507130128 47 289 1.7 4.3 0.00 0.00 0.00 72 1032.9
20260507125627 46 269 0.0 2.6 0.00 0.00 0.00 75 1033.1
20260507125124 47 316 1.7 2.6 0.00 0.00 0.00 76 1032.8
20260507124620 45 173 0.0 5.2 0.00 0.00 0.00 77 1033.0
20260507124118 47 301 1.7 4.3 0.00 0.00 0.00 76 1033.1
20260507123616 47 193 0.9 2.6 0.00 0.00 0.00 75 1033.1
20260507123113 48 130 0.0 2.6 0.00 0.00 0.00 74 1033.1
20260507122608 48 102 3.5 4.3 0.00 0.00 0.00 74 1033.0
20260507122104 48 17 0.9 1.7 0.00 0.00 0.00 76 1033.2
20260507121600 47 136 1.7 3.5 0.00 0.00 0.00 79 1033.1
20260507121056 47 128 1.7 4.3 0.00 0.00 0.00 79 1033.0
20260507120552 46 52 0.0 2.6 0.00 0.00 0.00 80 1033.1
20260507120049 45 111 1.7 1.7 0.00 0.00 0.00 84 1033.1
20260507115545 44 93 1.7 2.6 0.00 0.00 0.00 85 1033.2
20260507115041 44 132 2.6 4.3 0.00 0.00 0.00 86 1033.0
20260507114537 44 64 1.7 2.6 0.00 0.00 0.00 87 1033.0
20260507114035 43 99 0.9 2.6 0.00 0.00 0.00 87 1033.2
20260507113532 43 101 2.6 2.6 0.00 0.00 0.00 87 1033.0
20260507113029 42 160 0.9 2.6 0.00 0.00 0.00 87 1033.4
20260507112527 42 106 3.5 4.3 0.00 0.00 0.00 86 1033.1
20260507112023 42 149 2.6 3.5 0.00 0.00 0.00 87 1032.8
20260507111520 42 69 1.7 2.6 0.00 0.00 0.00 86 1033.1
20260507111016 42 339 1.7 5.2 0.00 0.00 0.00 85 1032.8
20260507110513 41 28 0.9 5.2 0.00 0.00 0.00 86 1032.7
20260507110010 41 74 2.6 6.1 0.00 0.00 0.00 85 1032.6
20260507105506 41 44 1.7 2.6 0.00 0.00 0.00 82 1032.3
20260507105003 41 248 0.0 1.7 0.00 0.00 0.00 81 1032.0
20260507104500 40 218 1.7 2.6 0.00 0.00 0.00 82 1032.0
20260507103956 40 206 0.0 3.5 0.00 0.00 0.00 85 1032.1
20260507103453 39 193 2.6 4.3 0.00 0.00 0.00 89 1031.9
20260507102949 38 195 0.0 2.6 0.00 0.00 0.00 93 1031.9
20260507102446 37 201 0.9 3.5 0.00 0.00 0.00 94 1031.9
20260507101942 37 189 0.0 2.6 0.00 0.00 0.00 95 1032.0
20260507101437 37 119 0.0 1.7 0.00 0.00 0.00 95 1032.0
20260507100934 37 139 0.9 2.6 0.00 0.00 0.00 95 1031.7
20260507100432 37 147 0.9 2.6 0.00 0.00 0.00 95 1031.7
20260507095930 37 127 0.0 1.7 0.00 0.00 0.00 95 1031.8
20260507095427 37 132 0.9 2.6 0.00 0.00 0.00 95 1031.5
20260507094924 37 146 1.7 2.6 0.00 0.00 0.00 95 1031.9
20260507094420 38 127 1.7 2.6 0.00 0.00 0.00 95 1031.9
20260507093917 38 144 1.7 2.6 0.00 0.00 0.00 94 1031.7
20260507093415 38 136 1.7 1.7 0.00 0.00 0.00 94 1031.9
20260507092913 38 130 0.9 2.6 0.00 0.00 0.00 94 1031.6
20260507092409 38 132 1.7 2.6 0.00 0.00 0.00 93 1031.8
20260507091906 38 122 1.7 2.6 0.00 0.00 0.00 93 1032.0
20260507091402 38 112 0.9 1.7 0.00 0.00 0.00 92 1032.1
20260507090857 38 186 1.7 1.7 0.00 0.00 0.00 93 1032.1
20260507090354 37 172 0.9 1.7 0.00 0.00 0.00 94 1031.9
20260507085851 38 133 1.7 2.6 0.00 0.00 0.00 94 1032.3
20260507085348 38 70 0.0 1.7 0.00 0.00 0.00 94 1032.2
20260507084845 37 131 0.0 1.7 0.00 0.00 0.00 94 1032.1
20260507084341 37 136 0.9 2.6 0.00 0.00 0.00 95 1032.2
20260507083839 37 207 0.0 2.6 0.00 0.00 0.00 95 1032.0
20260507083335 37 120 0.0 1.7 0.00 0.00 0.00 95 1032.2
20260507082832 37 160 0.0 2.6 0.00 0.00 0.00 95 1032.5
20260507082327 37 200 0.9 4.3 0.00 0.00 0.00 96 1032.4
20260507081825 37 209 0.9 2.6 0.00 0.00 0.00 96 1032.3
20260507081321 37 224 0.9 1.7 0.00 0.00 0.00 96 1032.5
20260507080817 37 153 0.9 1.7 0.00 0.00 0.00 96 1032.4
20260507080314 37 144 0.9 2.6 0.00 0.00 0.00 96 1032.5
20260507075809 37 164 1.7 1.7 0.00 0.00 0.00 96 1032.6
20260507075307 37 202 1.7 3.5 0.00 0.00 0.00 96 1032.7
20260507074802 37 202 2.6 2.6 0.00 0.00 0.00 96 1032.6
20260507074300 37 209 1.7 1.7 0.00 0.00 0.00 95 1032.6
20260507073757 38 151 0.0 0.9 0.00 0.00 0.00 94 1032.6
20260507073253 39 119 0.0 1.7 0.00 0.00 0.00 94 1032.6
20260507072751 39 144 1.7 1.7 0.00 0.00 0.00 95 1032.5
20260507072248 39 117 0.9 2.6 0.00 0.00 0.00 94 1032.4
20260507071746 39 114 0.0 1.7 0.00 0.00 0.00 94 1032.5
20260507071241 39 114 0.9 1.7 0.00 0.00 0.00 93 1032.5
20260507070739 40 120 0.0 1.7 0.00 0.00 0.00 93 1032.4
20260507070236 39 128 0.9 1.7 0.00 0.00 0.00 92 1032.5
20260507065732 39 110 0.9 1.7 0.00 0.00 0.00 92 1032.6
20260507065229 39 122 0.0 1.7 0.00 0.00 0.00 92 1032.6
20260507064726 39 178 0.0 2.6 0.00 0.00 0.00 92 1032.4
20260507064226 39 189 0.9 1.7 0.00 0.00 0.00 93 1032.3
20260507063722 39 218 1.7 2.6 0.00 0.00 0.00 94 1032.8
20260507063219 39 204 0.9 3.5 0.00 0.00 0.00 96 1032.7
20260507062716 40 209 0.9 2.6 0.00 0.00 0.00 96 1032.8
20260507062214 40 172 1.7 2.6 0.00 0.00 0.00 96 1033.1
20260507061711 41 164 0.0 1.7 0.00 0.00 0.00 96 1033.0
20260507061209 41 202 0.0 0.9 0.00 0.00 0.00 95 1033.1
20260507060707 41 188 0.0 1.7 0.00 0.00 0.00 95 1033.1
20260507060203 41 200 1.7 1.7 0.00 0.00 0.00 95 1032.9
20260507055659 41 153 0.9 0.9 0.00 0.00 0.00 94 1033.3
20260507055155 41 173 0.0 0.9 0.00 0.00 0.00 94 1033.2
20260507054651 42 175 0.0 1.7 0.00 0.00 0.00 94 1033.1
20260507054148 42 135 0.0 0.9 0.00 0.00 0.00 95 1032.9
20260507053646 42 170 0.0 1.7 0.00 0.00 0.00 95 1033.2
20260507053144 42 123 0.0 0.9 0.00 0.00 0.00 95 1033.1
20260507052642 42 132 0.0 1.7 0.00 0.00 0.00 96 1033.2
20260507052138 42 143 0.0 1.7 0.00 0.00 0.00 96 1033.4
20260507051636 42 164 0.0 1.7 0.00 0.00 0.00 97 1033.2
20260507051132 42 157 0.0 1.7 0.00 0.00 0.00 97 1033.5
20260507050629 42 236 0.0 1.7 0.00 0.00 0.00 97 1033.2
20260507050126 42 67 0.0 1.7 0.00 0.00 0.00 97 1033.4
20260507045623 42 135 1.7 1.7 0.00 0.00 0.00 97 1033.3
20260507045120 42 153 0.0 1.7 0.00 0.00 0.00 97 1033.5
20260507044616 42 124 0.0 0.9 0.00 0.00 0.00 97 1033.6
20260507044113 43 119 0.0 0.9 0.00 0.00 0.00 97 1033.6
20260507043609 43 147 0.0 0.9 0.00 0.00 0.00 97 1033.5
20260507043106 43 157 0.0 0.9 0.00 0.00 0.00 97 1033.5
20260507042602 43 150 0.0 1.7 0.00 0.00 0.00 98 1033.6
20260507042057 43 104 0.0 1.7 0.00 0.00 0.00 98 1033.4
20260507041555 43 224 0.0 0.9 0.00 0.00 0.00 98 1033.4
20260507041052 43 229 0.0 1.7 0.00 0.00 0.00 97 1033.4
20260507040548 43 202 0.0 0.9 0.00 0.00 0.00 97 1033.5
20260507040044 43 205 0.0 0.0 0.00 0.00 0.00 97 1033.5
20260507035540 43 186 0.0 1.7 0.00 0.38 0.38 97 1033.5
20260507035037 43 196 0.0 1.7 0.00 0.38 0.38 97 1033.4
20260507034534 44 204 0.0 1.7 0.00 0.38 0.38 97 1033.7
20260507034032 44 212 0.0 0.9 0.00 0.38 0.38 96 1033.3
20260507033530 44 293 0.0 0.9 0.00 0.38 0.38 96 1033.5
20260507033027 44 22 0.0 0.9 0.00 0.38 0.38 96 1033.3
20260507032524 44 235 0.0 0.9 0.00 0.38 0.38 96 1033.4
20260507032020 44 304 0.0 1.7 0.00 0.38 0.38 95 1033.3
20260507031516 44 261 0.0 1.7 0.00 0.38 0.38 95 1033.2
20260507031014 44 224 0.0 0.0 0.00 0.38 0.38 95 1033.3
20260507030510 44 224 0.0 0.9 0.00 0.38 0.38 95 1033.4
20260507030008 44 28 0.0 0.9 0.00 0.38 0.38 94 1033.3
20260507025504 45 22 0.0 1.7 0.00 0.38 0.38 94 1033.5
20260507025002 45 329 0.0 0.9 0.00 0.38 0.38 93 1033.6
20260507024459 45 255 0.0 0.9 0.00 0.38 0.38 92 1033.3
20260507023955 45 285 0.0 1.7 0.00 0.38 0.38 91 1033.2
20260507023452 45 280 0.9 1.7 0.00 0.38 0.38 91 1033.2
20260507022949 45 199 0.0 1.7 0.00 0.38 0.38 90 1033.2
20260507022447 45 263 0.0 1.7 0.00 0.38 0.38 90 1033.1
20260507021941 45 254 0.0 3.5 0.00 0.38 0.38 89 1033.0
20260507021437 45 336 2.6 3.5 0.00 0.38 0.38 89 1033.2
20260507020935 45 301 0.0 1.7 0.00 0.38 0.38 88 1033.0
20260507020432 45 334 0.0 1.7 0.00 0.38 0.38 88 1033.0
20260507015929 45 262 2.6 6.1 0.00 0.38 0.38 87 1033.3
20260507015427 45 283 2.6 4.3 0.00 0.38 0.38 86 1033.1
20260507014924 45 287 1.7 6.1 0.00 0.38 0.38 86 1033.5
20260507014420 46 300 1.7 7.0 0.00 0.38 0.38 84 1033.1
20260507013917 45 261 2.6 4.3 0.00 0.38 0.38 84 1032.8
20260507013414 45 265 1.7 4.3 0.00 0.38 0.38 83 1033.3
20260507012911 46 250 1.7 3.5 0.00 0.38 0.38 83 1033.1
20260507012408 46 250 2.6 3.5 0.00 0.38 0.38 83 1033.2
20260507011904 46 261 2.6 5.2 0.00 0.38 0.38 83 1033.1
20260507011401 46 299 1.7 4.3 0.00 0.38 0.38 84 1033.2
20260507010901 46 252 5.2 6.1 0.00 0.38 0.38 84 1033.0
20260507010357 46 256 2.6 5.2 0.00 0.38 0.38 85 1033.0
20260507005854 46 255 3.5 4.3 0.00 0.38 0.38 86 1033.1
20260507005351 46 267 1.7 4.3 0.00 0.38 0.38 87 1032.9
20260507004848 46 294 0.9 1.7 0.00 0.38 0.38 88 1032.8
20260507004345 46 264 0.9 1.7 0.00 0.38 0.38 88 1032.7
20260507003842 46 306 0.9 1.7 0.00 0.38 0.38 88 1032.8
20260507003337 47 216 1.7 3.5 0.00 0.38 0.38 87 1033.1
20260507002832 46 229 0.9 3.5 0.00 0.38 0.38 89 1032.5
20260507002329 46 155 1.7 2.6 0.00 0.38 0.38 90 1032.8
20260507001826 47 99 1.7 1.7 0.00 0.38 0.38 89 1032.6
20260507001323 46 269 0.0 1.7 0.00 0.38 0.38 89 1032.7
20260507000819 47 50 0.0 0.9 0.00 0.38 0.38 89 1032.6
20260507000315 47 139 0.0 0.9 0.00 0.38 0.38 89 1032.7
20260506235812 47 261 0.0 1.7 0.00 0.38 0.38 88 1032.5
20260506235308 47 304 0.0 0.9 0.00 0.38 0.38 87 1032.5
20260506234805 47 309 0.9 1.7 0.00 0.38 0.38 86 1032.2
20260506234302 47 250 1.7 2.6 0.00 0.38 0.38 85 1032.3
20260506233800 47 208 0.0 2.6 0.00 0.38 0.38 84 1032.4